Home   Weather   Uluru   Past weeks

Flag for Australia Past Weather in Uluru, Northern Territory, Australia — Yesterday and Last 2 Weeks

Now
84 °F

Clear.


Feels Like: 83 °F
Forecast: 76 / 99 °F
Wind: 7 mph from Northeast

Location: Ayers Rock

Current Time: Dec 3, 2016 at 9:20:12 pm

Latest Report: Dec 3, 2016 at 8:30 pm


Visibility: N/A

Pressure: 29.86 "Hg (27.10 "Hg at 857m altitude)

Humidity: 37%

Dew Point: 55 °F

Location of UluruLocation

Past Weather in Uluru — Graph

°F

Uluru Temperature Yesterday

Maximum temperature yesterday: 102 °F (at 1:30 pm)
Minimum temperature yesterday: 79 °F (at 11:30 pm)
Average temperature yesterday: 91 °F

High & Low Weather Summary for the Past Weeks

 TemperatureHumidityPressure
High108 °F (Dec 1, 1:30 pm)88% (Nov 24, 12:30 am)30.09 "Hg (Nov 24, 12:30 am)
Low59 °F (Nov 25, 4:30 am)5% (Nov 29, 3:29 pm)29.65 "Hg (Nov 21, 2:30 pm)
Average83 °F30%29.89 "Hg
* Reported Nov 18 7:30 pm — Dec 3 7:30 pm, Uluru, Weather by CustomWeather, © 2016

Note: Actual official high and low records may vary slightly from our data, if they occured in-between our weather recording intervals... More about our weather records

Advertising

Uluru Weather History for the Previous 24 Hours

Scroll right to see more
 ConditionsComfort  
Time TempWeatherWind HumidityBarometerVisibility
7:30 pm
Sat, Dec 3
86 °FSunny.6 mph33%29.83 "HgN/A
6:30 pm88 °FSunny.8 mph33%29.83 "HgN/A
5:30 pm88 °FSunny.7 mph33%29.80 "HgN/A
4:30 pm88 °FSunny.3 mph33%29.86 "HgN/A
3:30 pm88 °FOvercast.6 mph31%29.89 "HgN/A
2:30 pm84 °FSunny.5 mph40%29.89 "HgN/A
1:30 pm79 °FBroken clouds.10 mph61%29.95 "HgN/A
12:30 pm86 °FOvercast.12 mph35%29.95 "HgN/A
11:35 am88 °FScattered clouds.18 mph33%29.98 "HgN/A
11:30 am90 °FScattered clouds.21 mph31%29.98 "HgN/A
10:30 am88 °FMore clouds than sun.2 mph35%29.95 "HgN/A
9:30 am86 °FSunny.1 mph38%29.92 "HgN/A
8:30 am81 °FPartly sunny.7 mph54%29.95 "HgN/A
7:30 am77 °FSunny.6 mph69%29.92 "HgN/A
6:30 am75 °FScattered clouds.5 mph74%29.92 "HgN/A
5:30 am75 °FPassing clouds.6 mph69%29.86 "HgN/A
4:30 am77 °FPassing clouds.3 mph65%29.86 "HgN/A
3:30 am79 °FMostly cloudy.8 mph58%29.83 "HgN/A
2:30 am77 °FPassing clouds.1 mph69%29.83 "HgN/A
1:30 am79 °FMostly cloudy.3 mph61%29.86 "HgN/A
12:30 am79 °FMostly cloudy.10 mph54%29.89 "HgN/A
11:30 pm
Fri, Dec 2
79 °FOvercast.8 mph58%29.92 "HgN/A
10:30 pm84 °FPassing clouds.6 mph40%29.89 "HgN/A
9:30 pm84 °FClear.14 mph37%29.86 "HgN/A
Weather by CustomWeather, © 2016

See weather overviewHow to use our weather pages